Monroe, NC

8:43 AM EDT on August 26, 2016 (GMT -0400)
Monroe

Weather History for KEQY - August, 2014

Change the Weather History Date:

Saturday, August 9, 2014

  Actual Average (KCLT) Record (KCLT)
Temperature  
Mean Temperature 75 °F 78 °F  
Max Temperature 82 °F 88 °F 104 °F (2007)
Min Temperature 68 °F 68 °F 56 °F (2002)
Degree Days  
Heating Degree Days 0 0  
Month to date heating degree days 0  
Since 1 June heating degree days 3  
Since 1 July heating degree days 0  
Cooling Degree Days 10 13  
Month to date cooling degree days 117  
Year to date cooling degree days 1011  
Since 1 June cooling degree days 848  
Growing Degree Days 25 (Base 50)    
Moisture  
Dew Point 70 °F    
Average Humidity 88    
Maximum Humidity 96    
Minimum Humidity 69    
Precipitation  
Precipitation 0.15 in 0.13 in 1.26 in (1888)
Month to date precipitation 1.26  
Year to date precipitation 25.64  
Snow  
Snow 0.00 in 0.00 in 0.00 in ()
Month to date snowfall 0.0  
Since 1 June snowfall 0.0  
Since 1 July snowfall 0.0  
Snow Depth -    
Sea Level Pressure  
Sea Level Pressure 30.06 in    
Wind  
Wind Speed 2 mph (East)    
Max Wind Speed 12 mph    
Max Gust Speed -    
Visibility 8 miles    
Events Rain    
T = Trace of Precipitation, MM = Missing Value Source: NWS Daily Summary

Daily Weather History Graph

Daily Weather History Graph

Search for Another Location

Airport or City:

Trip Planner

Search our weather history database for the weather conditions in past years. The results will help you decide how hot, cold, wet, or windy it might be!

Date:

Astronomy

Aug. 09, 2014 Rise Set
Actual Time 6:37 AM EDT 8:17 PM EDT
Civil Twilight 6:10 AM EDT 8:44 PM EDT
Nautical Twilight 5:37 AM EDT 9:17 PM EDT
Astronomical Twilight 5:03 AM EDT 9:51 PM EDT
Moon 7:18 PM EDT (8/9) 5:16 AM EDT (8/9)
Length of Visible Light 14h 33m
Length of Day
13h 39m
Waxing Gibbous, 98% of the Moon is Illuminated
Aug 9
Waxing Gibbous
Aug 10
Full
Aug 17
Last Quarter
Aug 25
New
Sep 2
First Quarter

Hourly Weather History & Observations

Time (EDT) Temp. Heat Index Dew Point Humidity Pressure Visibility Wind Dir Wind Speed Gust Speed Precip Events Conditions
12:09 AM 73.9 °F - 70.0 °F 87% 30.08 in 8.0 mi Calm Calm - N/A   Overcast
12:34 AM 73.0 °F - 68.0 °F 84% 30.08 in 10.0 mi SSW 4.6 mph - N/A   Overcast
12:53 AM 73.0 °F - 68.0 °F 84% 30.06 in 10.0 mi Calm Calm - N/A   Mostly Cloudy
1:53 AM 71.1 °F - 68.0 °F 90% 30.06 in 10.0 mi Variable 3.5 mph - N/A   Clear
2:53 AM 72.0 °F - 68.0 °F 87% 30.05 in 10.0 mi SSW 3.5 mph - N/A   Overcast
3:53 AM 71.1 °F - 68.0 °F 90% 30.05 in 10.0 mi Calm Calm - N/A   Mostly Cloudy
4:25 AM 71.1 °F - 68.0 °F 90% 30.06 in 10.0 mi Calm Calm - N/A   Overcast
4:41 AM 71.1 °F - 68.0 °F 90% 30.06 in 10.0 mi SSW 3.5 mph - N/A   Mostly Cloudy
4:53 AM 71.1 °F - 68.0 °F 90% 30.06 in 10.0 mi Calm Calm - N/A   Mostly Cloudy
5:53 AM 70.0 °F - 68.0 °F 93% 30.06 in 9.0 mi Calm Calm - N/A   Overcast
6:53 AM 70.0 °F - 68.0 °F 93% 30.07 in 8.0 mi Calm Calm - N/A   Overcast
7:10 AM 70.0 °F - 68.0 °F 93% 30.08 in 8.0 mi Calm Calm - N/A   Overcast
7:53 AM 71.1 °F - 69.1 °F 93% 30.08 in 5.0 mi WSW 3.5 mph - 0.01 in Rain Light Rain
8:02 AM 71.1 °F - 69.1 °F 93% 30.08 in 1.8 mi SW 4.6 mph - 0.05 in Rain Heavy Rain
8:21 AM 71.1 °F - 69.1 °F 93% 30.08 in 2.5 mi Calm Calm - 0.11 in Rain Light Rain
8:28 AM 71.1 °F - 69.1 °F 93% 30.08 in 4.0 mi Calm Calm - 0.11 in Rain Light Rain
8:35 AM 72.0 °F - 70.0 °F 93% 30.08 in 5.0 mi Calm Calm - 0.11 in Rain Light Rain
8:53 AM 72.0 °F - 70.0 °F 93% 30.08 in 6.0 mi Calm Calm - 0.11 in Rain Light Rain
9:17 AM 73.0 °F - 70.0 °F 90% 30.07 in 4.0 mi Calm Calm - 0.00 in   Overcast
9:53 AM 73.9 °F - 70.0 °F 87% 30.07 in 10.0 mi Calm Calm - 0.00 in   Overcast
10:16 AM 75.0 °F - 71.1 °F 87% 30.08 in 10.0 mi Calm Calm - N/A   Mostly Cloudy
10:53 AM 75.0 °F - 70.0 °F 84% 30.09 in 10.0 mi Variable 3.5 mph - N/A   Overcast
11:51 AM 77.0 °F - 71.6 °F 83% 30.09 in 10.0 mi Variable 4.6 mph - N/A   Overcast
11:53 AM 77.0 °F - 72.0 °F 84% 30.09 in 10.0 mi Calm Calm - N/A   Overcast
12:05 PM 77.0 °F - 72.0 °F 84% 30.09 in 10.0 mi Calm Calm - N/A   Overcast
12:22 PM 77.0 °F - 72.0 °F 84% 30.08 in 10.0 mi Calm Calm - N/A   Overcast
12:50 PM 77.0 °F - 71.6 °F 83% 30.07 in 10.0 mi Calm Calm - N/A   Overcast
1:53 PM 75.9 °F - 73.0 °F 91% 30.07 in 3.0 mi SSW 3.5 mph - 0.02 in Rain Rain
1:58 PM 75.9 °F - 73.0 °F 91% 30.07 in 2.5 mi SW 4.6 mph - 0.01 in Rain Light Rain
2:06 PM 75.9 °F - 73.0 °F 91% 30.07 in 4.0 mi Calm Calm - 0.01 in Rain Light Rain
2:20 PM 78.1 °F - 73.0 °F 84% 30.06 in 9.0 mi Calm Calm - 0.01 in   Overcast
2:53 PM 80.1 °F 84.5 °F 73.9 °F 81% 30.04 in 10.0 mi Calm Calm - 0.01 in   Mostly Cloudy
2:57 PM 81.0 °F 85.8 °F 73.0 °F 77% 30.04 in 10.0 mi Calm Calm - N/A   Mostly Cloudy
3:10 PM 80.1 °F 84.5 °F 73.9 °F 81% 30.04 in 10.0 mi South 3.5 mph - N/A   Mostly Cloudy
3:53 PM 82.0 °F 86.7 °F 72.0 °F 71% 30.02 in 10.0 mi Calm Calm - N/A   Mostly Cloudy
4:00 PM 82.9 °F 88.0 °F 72.0 °F 69% 30.02 in 10.0 mi NNE 5.8 mph - N/A   Mostly Cloudy
4:31 PM 77.0 °F - 72.0 °F 84% 30.02 in 10.0 mi ENE 9.2 mph - N/A   Mostly Cloudy
4:41 PM 75.9 °F - 71.1 °F 85% 30.02 in 10.0 mi ENE 6.9 mph - N/A   Mostly Cloudy
4:50 PM 75.2 °F - 71.6 °F 89% 30.02 in 10.0 mi ENE 9.2 mph - N/A   Mostly Cloudy
4:53 PM 75.9 °F - 71.1 °F 85% 30.01 in 10.0 mi ENE 9.2 mph - N/A   Mostly Cloudy
5:53 PM 75.0 °F - 70.0 °F 84% 30.02 in 10.0 mi ENE 6.9 mph - N/A   Overcast
6:53 PM 72.0 °F - 69.1 °F 91% 30.03 in 10.0 mi ENE 9.2 mph - N/A   Overcast
7:16 PM 71.1 °F - 68.0 °F 90% 30.04 in 10.0 mi ENE 8.1 mph - N/A   Overcast
7:53 PM 71.1 °F - 68.0 °F 90% 30.06 in 9.0 mi East 6.9 mph - N/A   Overcast
8:53 PM 69.1 °F - 66.9 °F 93% 30.07 in 7.0 mi ENE 8.1 mph - N/A   Overcast
9:23 PM 69.1 °F - 66.9 °F 93% 30.07 in 6.0 mi ENE 10.4 mph - N/A   Overcast
9:53 PM 69.1 °F - 66.9 °F 93% 30.09 in 3.0 mi ENE 6.9 mph - N/A   Overcast
10:16 PM 68.0 °F - 66.9 °F 96% 30.08 in 2.5 mi NE 11.5 mph - N/A   Overcast
10:25 PM 68.0 °F - 66.9 °F 96% 30.09 in 5.0 mi NE 8.1 mph - N/A   Overcast
11:18 PM 68.0 °F - 66.0 °F 93% 30.09 in 1.2 mi NE 8.1 mph - N/A   Overcast